Location: Chaumontel
(49.1247°N, 2.4324°E)
Time: 04:33:29
(UTC+00:00)

COSMOS 2428 - Pass Details

Date: 10 August 2024
Orbit: 842 x 857 km, 70.9° (Epoch: 08 September)

Event Time Altitude Azimuth Distance (km) Brightness Sun altitude
Exits shadow 00:29:50 13° 113° (ESE) 2,274 4.8 -25.0°
Maximum altitude 00:31:15 14° 96° (E) 2,203 4.9 -24.9°
Drops below altitude 10° 00:34:02 10° 67° (ENE) 2,481 5.5 -24.9°
Sets 00:37:43 0° 43° (NE) 3,427 6.8 -24.7°
